Regional Weather Roundup
Issued by NWS

Home | Current Version | Previous Version | Graphics & Text | Print | Product List | Glossary On
Versions: 1 2 3 4 5 6 7 8 9 10 11 12 13 14 15 16 17 18 19 20 21 22 23 24 25 26 27 28 29 30 31 32 33 34 35 36 37 38 39 40 41 42 43 44 45 46 47 48 49
000
ASUS45 KCYS 080510
RWRWY

WYOMING REGIONAL WEATHER ROUNDUP
NATIONAL WEATHER SERVICE CHEYENNE WY
1000 PM MST SUN FEB 07 2016

NOTE:  "FAIR" INDICATES FEW OR NO CLOUDS BELOW 12,000 FEET
WITH NO SIGNIFICANT WEATHER AND/OR OBSTRUCTIONS TO VISIBILITY.

WYZ001-080600-
YELLOWSTONE NATIONAL PARK

CITY           SKY/WX    TMP DP  RH WIND       PRES   REMARKS
LK YELLOWSTONE   N/A     22  13  68 CALM      30.54S
W YELLOWSTONE  NOT AVBL

$$
WYZ002>013-054>058-071-098>099-080600-
NORTHERN WYOMING

CITY           SKY/WX    TMP DP  RH WIND       PRES   REMARKS
JACKSON        MOCLDY    18  10  73 N5        30.55R WCI  11
CODY           CLOUDY    30  14  51 CALM      30.42R
GREYBULL       CLOUDY    31  18  58 CALM      30.45R
WORLAND        CLOUDY    27  19  72 S3        30.44S
SHERIDAN       CLOUDY    30  15  53 W9        30.44S WCI  22
BUFFALO        CLOUDY    26  11  52 N8        30.40R WCI  18
GILLETTE       FAIR      25  10  53 NW15      30.39R WCI  13
HULETT         FAIR      28  12  50 NW10G16   30.36S WCI  19
NEWCASTLE      FAIR      23  10  58 NW13      30.36R WCI  11

$$
WYZ014>020-022>026-101>103-080600-
CENTRAL WYOMING

CITY           SKY/WX    TMP DP  RH WIND       PRES   REMARKS
BIG PINEY      FAIR      28  16  60 N14       30.48R WCI  17
PINEDALE       FAIR      28  12  50 W21       30.47S WCI  15
DUBOIS         MOCLDY    32  10  40 NW28G41   30.44R WCI  18
LANDER         FAIR      20  11  68 SW7       30.41S WCI  11
RIVERTON       FAIR      17  10  74 S7        30.43S WCI   8
CASPER         FAIR      17   7  64 SW13      30.41S WCI   4
DOUGLAS        FAIR      17  10  74 NW8         N/A  WCI   7

$$
WYZ021-027>030-104>119-080600-
SOUTHERN WYOMING

CITY           SKY/WX    TMP DP  RH WIND       PRES   REMARKS
EVANSTON       FAIR      23  13  65 SW8       30.59R WCI  14
FORT BRIDGER   CLEAR     27  18  69 W18G25    30.59R WCI  13
ROCK SPRINGS   FAIR      27  18  69 W28       30.47F WCI  11
DIXON          FAIR      12   8  81 E3        30.53S
RAWLINS        FAIR      23  16  74 W18       30.43R WCI   9
SARATOGA       CLOUDY    28  19  69 W9        30.45R WCI  20
LARAMIE          N/A     14  10  84 NE5       30.34R WCI   6
CHEYENNE       FAIR      20  11  68 N7        30.34R WCI  11
TORRINGTON     FAIR      27  11  51 NW14      30.37S WCI  16
PINE BLUFFS    FAIR      21  12  68 N7        30.37S WCI  13

$$



USA.gov is the U.S. government's official web portal to all federal, state and local government web resources and services.